Time,TemperatureF,DewpointF,PressureIn,WindDirection,WindDirectionDegrees,WindSpeedMPH,WindSpeedGustMPH,Humidity,HourlyPrecipIn,Conditions,Clouds,dailyrainin,SoftwareType,DateUTC
2013-06-22 00:00:00,74.1,67.6,30.11,East,83,0.0,2.0,80,0.00,,,0.00,meteohub,2013-06-22 05:00:00,
2013-06-22 00:05:00,73.9,67.5,30.11,East,83,0.0,1.0,80,0.00,,,0.00,meteohub,2013-06-22 05:05:00,
2013-06-22 00:10:00,73.8,67.6,30.11,East,83,0.0,0.0,81,0.00,,,0.00,meteohub,2013-06-22 05:10:00,
2013-06-22 00:15:00,73.4,67.3,30.10,East,83,0.0,0.0,81,0.00,,,0.00,meteohub,2013-06-22 05:15:00,
2013-06-22 00:20:00,73.0,67.3,30.10,East,83,0.0,1.0,82,0.00,,,0.00,meteohub,2013-06-22 05:20:00,
2013-06-22 00:25:00,73.0,67.3,30.10,East,83,0.0,1.0,82,0.00,,,0.00,meteohub,2013-06-22 05:25:00,
2013-06-22 00:31:00,73.0,67.3,30.10,East,83,0.0,1.0,82,0.00,,,0.00,meteohub,2013-06-22 05:31:00,
2013-06-22 00:36:00,72.9,67.1,30.10,East,83,0.0,1.0,82,0.00,,,0.00,meteohub,2013-06-22 05:36:00,
2013-06-22 00:41:00,72.9,67.1,30.10,East,83,0.0,1.0,82,0.00,,,0.00,meteohub,2013-06-22 05:41:00,
2013-06-22 00:46:00,72.7,66.9,30.10,East,83,0.0,0.0,82,0.00,,,0.00,meteohub,2013-06-22 05:46:00,
2013-06-22 00:51:00,72.7,66.9,30.10,East,83,0.0,0.0,82,0.00,,,0.00,meteohub,2013-06-22 05:51:00,
2013-06-22 00:56:00,72.5,66.7,30.10,East,83,0.0,0.0,82,0.00,,,0.00,meteohub,2013-06-22 05:56:00,
2013-06-22 01:01:00,72.3,66.9,30.10,East,83,1.0,0.0,83,0.00,,,0.00,meteohub,2013-06-22 06:01:00,
2013-06-22 01:06:00,72.3,66.9,30.10,East,83,1.0,2.0,83,0.00,,,0.00,meteohub,2013-06-22 06:06:00,
2013-06-22 01:11:00,72.3,66.6,30.10,East,83,1.0,2.0,82,0.00,,,0.00,meteohub,2013-06-22 06:11:00,
2013-06-22 01:17:00,72.3,66.9,30.10,East,85,1.0,3.0,83,0.00,,,0.00,meteohub,2013-06-22 06:17:00,
2013-06-22 01:22:00,72.3,66.6,30.10,East,94,2.0,3.0,82,0.00,,,0.00,meteohub,2013-06-22 06:22:00,
2013-06-22 01:27:00,72.3,66.6,30.10,East,89,2.0,5.0,82,0.00,,,0.00,meteohub,2013-06-22 06:27:00,
2013-06-22 01:32:00,72.5,66.4,30.10,East,95,2.0,5.0,81,0.00,,,0.00,meteohub,2013-06-22 06:32:00,
2013-06-22 01:37:00,72.5,66.7,30.09,East,95,2.0,5.0,82,0.00,,,0.00,meteohub,2013-06-22 06:37:00,
2013-06-22 01:42:00,72.3,66.6,30.09,ENE,71,0.0,3.0,82,0.00,,,0.00,meteohub,2013-06-22 06:42:00,
2013-06-22 01:47:00,72.1,66.4,30.09,East,85,2.0,2.0,82,0.00,,,0.00,meteohub,2013-06-22 06:47:00,
2013-06-22 01:52:00,72.1,66.4,30.09,East,96,2.0,3.0,82,0.00,,,0.00,meteohub,2013-06-22 06:52:00,
2013-06-22 01:57:00,72.1,66.4,30.09,East,95,1.0,3.0,82,0.00,,,0.00,meteohub,2013-06-22 06:57:00,
2013-06-22 02:02:00,72.0,66.2,30.09,East,88,1.0,3.0,82,0.00,,,0.00,meteohub,2013-06-22 07:02:00,
2013-06-22 02:07:00,72.0,66.2,30.09,East,92,0.0,5.0,82,0.00,,,0.00,meteohub,2013-06-22 07:07:00,
2013-06-22 02:12:00,71.8,66.0,30.08,East,92,0.0,5.0,82,0.00,,,0.00,meteohub,2013-06-22 07:12:00,
2013-06-22 02:17:00,71.6,66.2,30.08,East,92,1.0,5.0,83,0.00,,,0.00,meteohub,2013-06-22 07:17:00,
2013-06-22 02:22:00,71.4,66.0,30.08,ENE,62,1.0,5.0,83,0.00,,,0.00,meteohub,2013-06-22 07:22:00,
2013-06-22 02:27:00,71.4,66.0,30.08,East,93,2.0,5.0,83,0.00,,,0.00,meteohub,2013-06-22 07:27:00,
2013-06-22 02:32:00,71.2,65.8,30.08,East,91,2.0,5.0,83,0.00,,,0.00,meteohub,2013-06-22 07:32:00,
2013-06-22 02:37:00,71.2,65.8,30.09,East,90,5.0,5.0,83,0.00,,,0.00,meteohub,2013-06-22 07:37:00,
2013-06-22 02:42:00,71.2,65.8,30.08,East,90,2.0,6.0,83,0.00,,,0.00,meteohub,2013-06-22 07:42:00,
2013-06-22 02:47:00,71.2,65.8,30.08,East,89,2.0,6.0,83,0.00,,,0.00,meteohub,2013-06-22 07:47:00,
2013-06-22 02:52:00,71.1,66.0,30.09,East,85,3.0,6.0,84,0.00,,,0.00,meteohub,2013-06-22 07:52:00,
2013-06-22 02:57:00,71.1,66.0,30.09,ENE,63,1.0,6.0,84,0.00,,,0.00,meteohub,2013-06-22 07:57:00,
2013-06-22 03:02:00,70.9,65.8,30.09,East,84,1.0,6.0,84,0.00,,,0.00,meteohub,2013-06-22 08:02:00,
2013-06-22 03:07:00,70.9,65.8,30.09,East,84,1.0,3.0,84,0.00,,,0.00,meteohub,2013-06-22 08:07:00,
2013-06-22 03:12:00,70.5,65.5,30.09,East,83,2.0,3.0,84,0.00,,,0.00,meteohub,2013-06-22 08:12:00,
2013-06-22 03:17:00,70.3,65.7,30.09,East,95,3.0,3.0,85,0.00,,,0.00,meteohub,2013-06-22 08:17:00,
2013-06-22 03:22:00,70.3,66.0,30.09,East,88,3.0,6.0,86,0.00,,,0.00,meteohub,2013-06-22 08:22:00,
2013-06-22 03:27:00,70.3,66.0,30.08,East,91,2.0,7.0,86,0.00,,,0.00,meteohub,2013-06-22 08:27:00,
2013-06-22 03:32:00,70.2,65.8,30.09,ESE,114,2.0,7.0,86,0.00,,,0.00,meteohub,2013-06-22 08:32:00,
2013-06-22 03:37:00,70.2,66.0,30.09,East,91,3.0,7.0,87,0.00,,,0.00,meteohub,2013-06-22 08:37:00,
2013-06-22 03:42:00,70.3,66.2,30.09,East,96,1.0,6.0,87,0.00,,,0.00,meteohub,2013-06-22 08:42:00,
2013-06-22 03:47:00,70.2,66.0,30.09,East,88,2.0,6.0,87,0.00,,,0.00,meteohub,2013-06-22 08:47:00,
2013-06-22 03:52:00,70.2,66.0,30.09,East,79,1.0,6.0,87,0.00,,,0.00,meteohub,2013-06-22 08:52:00,
2013-06-22 03:57:00,70.0,66.0,30.08,ESE,102,2.0,3.0,87,0.00,,,0.00,meteohub,2013-06-22 08:57:00,
2013-06-22 04:02:00,70.0,66.0,30.08,East,92,1.0,4.0,87,0.00,,,0.00,meteohub,2013-06-22 09:02:00,
2013-06-22 04:07:00,70.0,66.2,30.08,East,101,3.0,4.0,88,0.00,,,0.00,meteohub,2013-06-22 09:07:00,
2013-06-22 04:12:00,70.0,66.2,30.08,East,87,2.0,6.0,88,0.00,,,0.00,meteohub,2013-06-22 09:12:00,
2013-06-22 04:18:00,70.0,66.6,30.08,East,89,3.0,6.0,89,0.00,,,0.00,meteohub,2013-06-22 09:18:00,
2013-06-22 04:23:00,69.8,66.4,30.08,East,93,3.0,6.0,89,0.00,,,0.00,meteohub,2013-06-22 09:23:00,
2013-06-22 04:28:00,69.8,66.4,30.08,East,87,2.0,5.0,89,0.00,,,0.00,meteohub,2013-06-22 09:28:00,
2013-06-22 04:33:00,69.6,66.2,30.09,East,88,2.0,5.0,89,0.00,,,0.00,meteohub,2013-06-22 09:33:00,
2013-06-22 04:38:00,69.6,66.6,30.09,East,89,1.0,5.0,90,0.00,,,0.00,meteohub,2013-06-22 09:38:00,
2013-06-22 04:43:00,69.6,66.6,30.09,East,93,1.0,5.0,90,0.00,,,0.00,meteohub,2013-06-22 09:43:00,
2013-06-22 04:48:00,69.4,66.4,30.09,East,79,2.0,5.0,90,0.00,,,0.00,meteohub,2013-06-22 09:48:00,
2013-06-22 04:53:00,69.4,66.4,30.09,East,85,2.0,5.0,90,0.00,,,0.00,meteohub,2013-06-22 09:53:00,
2013-06-22 04:58:00,69.4,66.7,30.10,East,85,1.0,3.0,91,0.00,,,0.00,meteohub,2013-06-22 09:58:00,
2013-06-22 05:03:00,69.4,66.7,30.10,East,79,2.0,3.0,91,0.00,,,0.00,meteohub,2013-06-22 10:03:00,
2013-06-22 05:09:00,69.3,66.6,30.10,East,91,1.0,3.0,91,0.00,,,0.00,meteohub,2013-06-22 10:09:00,
2013-06-22 05:14:00,69.3,66.6,30.10,East,87,3.0,6.0,91,0.00,,,0.00,meteohub,2013-06-22 10:14:00,
2013-06-22 05:19:00,69.3,66.6,30.10,East,96,1.0,6.0,91,0.00,,,0.00,meteohub,2013-06-22 10:19:00,
2013-06-22 05:24:00,69.3,66.9,30.10,East,87,3.0,3.0,92,0.00,,,0.00,meteohub,2013-06-22 10:24:00,
2013-06-22 05:29:00,69.3,66.9,30.10,East,91,1.0,3.0,92,0.00,,,0.00,meteohub,2013-06-22 10:29:00,
2013-06-22 05:34:00,69.1,66.4,30.10,East,95,2.0,5.0,91,0.00,,,0.00,meteohub,2013-06-22 10:34:00,
2013-06-22 05:39:00,69.1,66.7,30.10,East,95,1.0,5.0,92,0.00,,,0.00,meteohub,2013-06-22 10:39:00,
2013-06-22 05:44:00,69.1,66.7,30.10,East,95,0.0,5.0,92,0.00,,,0.00,meteohub,2013-06-22 10:44:00,
2013-06-22 05:49:00,69.1,66.7,30.10,East,100,3.0,3.0,92,0.00,,,0.00,meteohub,2013-06-22 10:49:00,
2013-06-22 05:55:00,69.1,66.7,30.10,East,88,3.0,3.0,92,0.00,,,0.00,meteohub,2013-06-22 10:55:00,
2013-06-22 06:00:00,69.1,66.7,30.10,East,86,2.0,3.0,92,0.00,,,0.00,meteohub,2013-06-22 11:00:00,
2013-06-22 06:05:00,69.1,66.7,30.11,East,86,3.0,6.0,92,0.00,,,0.00,meteohub,2013-06-22 11:05:00,
2013-06-22 06:10:00,69.3,66.9,30.11,East,87,2.0,6.0,92,0.00,,,0.00,meteohub,2013-06-22 11:10:00,
2013-06-22 06:15:00,69.3,66.9,30.11,East,87,2.0,6.0,92,0.00,,,0.00,meteohub,2013-06-22 11:15:00,
2013-06-22 06:20:00,69.4,66.7,30.11,East,87,3.0,6.0,91,0.00,,,0.00,meteohub,2013-06-22 11:20:00,
2013-06-22 06:25:00,69.6,66.9,30.12,East,89,0.0,5.0,91,0.00,,,0.00,meteohub,2013-06-22 11:25:00,
2013-06-22 06:31:00,69.8,67.1,30.12,East,81,1.0,5.0,91,0.00,,,0.00,meteohub,2013-06-22 11:31:00,
2013-06-22 06:36:00,70.2,67.5,30.12,East,91,2.0,3.0,91,0.00,,,0.00,meteohub,2013-06-22 11:36:00,
2013-06-22 06:41:00,70.5,67.5,30.12,East,88,3.0,3.0,90,0.00,,,0.00,meteohub,2013-06-22 11:41:00,
2013-06-22 06:46:00,70.9,67.8,30.12,East,91,3.0,5.0,90,0.00,,,0.00,meteohub,2013-06-22 11:46:00,
2013-06-22 06:51:00,71.1,68.0,30.12,ESE,104,4.0,6.0,90,0.00,,,0.00,meteohub,2013-06-22 11:51:00,
2013-06-22 06:56:00,71.4,68.0,30.12,East,79,3.0,6.0,89,0.00,,,0.00,meteohub,2013-06-22 11:56:00,
2013-06-22 07:01:00,71.8,68.4,30.12,ENE,77,3.0,6.0,89,0.00,,,0.00,meteohub,2013-06-22 12:01:00,
2013-06-22 07:06:00,72.1,68.4,30.12,East,90,6.0,6.0,88,0.00,,,0.00,meteohub,2013-06-22 12:06:00,
2013-06-22 07:11:00,72.3,68.9,30.12,ENE,75,1.0,7.0,89,0.00,,,0.00,meteohub,2013-06-22 12:11:00,
2013-06-22 07:17:00,72.7,68.9,30.12,ESE,102,5.0,7.0,88,0.00,,,0.00,meteohub,2013-06-22 12:17:00,
2013-06-22 07:22:00,72.9,69.1,30.12,ESE,109,4.0,7.0,88,0.00,,,0.00,meteohub,2013-06-22 12:22:00,
2013-06-22 07:27:00,73.2,69.1,30.13,East,91,5.0,7.0,87,0.00,,,0.00,meteohub,2013-06-22 12:27:00,
2013-06-22 07:32:00,73.6,69.4,30.13,East,90,2.0,7.0,87,0.00,,,0.00,meteohub,2013-06-22 12:32:00,
2013-06-22 07:37:00,73.8,69.6,30.13,East,90,3.0,7.0,87,0.00,,,0.00,meteohub,2013-06-22 12:37:00,
2013-06-22 07:42:00,74.1,70.0,30.13,East,87,6.0,7.0,87,0.00,,,0.00,meteohub,2013-06-22 12:42:00,
2013-06-22 07:47:00,74.5,70.3,30.13,East,91,2.0,8.0,87,0.00,,,0.00,meteohub,2013-06-22 12:47:00,
2013-06-22 07:52:00,74.7,70.5,30.13,East,88,2.0,8.0,87,0.00,,,0.00,meteohub,2013-06-22 12:52:00,
2013-06-22 07:57:00,74.8,70.7,30.13,East,89,6.0,9.0,87,0.00,,,0.00,meteohub,2013-06-22 12:57:00,
2013-06-22 08:02:00,74.8,70.3,30.14,East,79,7.0,10.0,86,0.00,,,0.00,meteohub,2013-06-22 13:02:00,
2013-06-22 08:07:00,75.0,70.5,30.13,ESE,105,5.0,10.0,86,0.00,,,0.00,meteohub,2013-06-22 13:07:00,
2013-06-22 08:12:00,75.4,70.9,30.14,ESE,114,4.0,10.0,86,0.00,,,0.00,meteohub,2013-06-22 13:12:00,
2013-06-22 08:17:00,75.7,71.2,30.14,ENE,75,4.0,10.0,86,0.00,,,0.00,meteohub,2013-06-22 13:17:00,
2013-06-22 08:22:00,76.3,71.4,30.14,ENE,66,2.0,9.0,85,0.00,,,0.00,meteohub,2013-06-22 13:22:00,
2013-06-22 08:27:00,76.6,71.4,30.14,ESE,102,3.0,9.0,84,0.00,,,0.00,meteohub,2013-06-22 13:27:00,
2013-06-22 08:32:00,76.6,71.1,30.14,SE,143,1.0,9.0,83,0.00,,,0.00,meteohub,2013-06-22 13:32:00,
2013-06-22 08:37:00,77.4,72.1,30.14,ENE,75,2.0,8.0,84,0.00,,,0.00,meteohub,2013-06-22 13:37:00,
2013-06-22 08:42:00,77.7,71.8,30.14,SE,133,2.0,8.0,82,0.00,,,0.00,meteohub,2013-06-22 13:42:00,
2013-06-22 08:47:00,78.1,71.8,30.14,ENE,72,7.0,8.0,81,0.00,,,0.00,meteohub,2013-06-22 13:47:00,
2013-06-22 08:52:00,78.1,71.8,30.14,East,85,2.0,8.0,81,0.00,,,0.00,meteohub,2013-06-22 13:52:00,
2013-06-22 08:57:00,78.1,71.8,30.14,ESE,118,2.0,8.0,81,0.00,,,0.00,meteohub,2013-06-22 13:57:00,
2013-06-22 09:02:00,78.6,72.3,30.14,SSE,148,1.0,8.0,81,0.00,,,0.00,meteohub,2013-06-22 14:02:00,
2013-06-22 09:07:00,79.0,72.3,30.14,ENE,78,3.0,8.0,80,0.00,,,0.00,meteohub,2013-06-22 14:07:00,
2013-06-22 09:12:00,79.2,72.1,30.14,ENE,76,2.0,8.0,79,0.00,,,0.00,meteohub,2013-06-22 14:12:00,
2013-06-22 09:17:00,79.3,72.7,30.13,East,91,6.0,11.0,80,0.00,,,0.00,meteohub,2013-06-22 14:17:00,
2013-06-22 09:22:00,79.5,72.5,30.13,East,88,3.0,11.0,79,0.00,,,0.00,meteohub,2013-06-22 14:22:00,
2013-06-22 09:27:00,80.1,72.1,30.13,ENE,70,2.0,11.0,77,0.00,,,0.00,meteohub,2013-06-22 14:27:00,
2013-06-22 09:32:00,80.1,72.5,30.13,ESE,116,3.0,8.0,78,0.00,,,0.00,meteohub,2013-06-22 14:32:00,
2013-06-22 09:37:00,80.4,72.5,30.14,SE,143,1.0,9.0,77,0.00,,,0.00,meteohub,2013-06-22 14:37:00,
2013-06-22 09:42:00,81.0,72.3,30.14,ENE,74,3.0,10.0,75,0.00,,,0.00,meteohub,2013-06-22 14:42:00,
2013-06-22 09:47:00,81.3,71.8,30.14,ESE,120,4.0,10.0,73,0.00,,,0.00,meteohub,2013-06-22 14:47:00,
2013-06-22 09:52:00,81.7,72.1,30.14,ENE,65,1.0,10.0,73,0.00,,,0.00,meteohub,2013-06-22 14:52:00,
2013-06-22 09:57:00,81.9,72.3,30.14,ENE,70,4.0,9.0,73,0.00,,,0.00,meteohub,2013-06-22 14:57:00,
2013-06-22 10:02:00,81.3,71.8,30.14,ENE,69,2.0,9.0,73,0.00,,,0.00,meteohub,2013-06-22 15:02:00,
2013-06-22 10:08:00,81.5,71.6,30.14,ENE,70,10.0,10.0,72,0.00,,,0.00,meteohub,2013-06-22 15:08:00,
2013-06-22 10:13:00,81.5,71.2,30.13,East,81,9.0,10.0,71,0.00,,,0.00,meteohub,2013-06-22 15:13:00,
2013-06-22 10:18:00,81.7,71.4,30.14,East,82,7.0,14.0,71,0.00,,,0.00,meteohub,2013-06-22 15:18:00,
2013-06-22 10:23:00,81.9,72.0,30.14,ENE,73,3.0,14.0,72,0.00,,,0.00,meteohub,2013-06-22 15:23:00,
2013-06-22 10:28:00,82.4,72.5,30.14,ESE,104,4.0,14.0,72,0.00,,,0.00,meteohub,2013-06-22 15:28:00,
2013-06-22 10:33:00,82.9,71.2,30.14,East,81,7.0,11.0,68,0.00,,,0.00,meteohub,2013-06-22 15:33:00,
2013-06-22 10:38:00,82.8,71.6,30.14,ESE,112,4.0,14.0,69,0.00,,,0.00,meteohub,2013-06-22 15:38:00,
2013-06-22 10:43:00,82.9,71.2,30.14,ESE,102,4.0,14.0,68,0.00,,,0.00,meteohub,2013-06-22 15:43:00,
2013-06-22 10:49:00,82.9,71.2,30.14,East,87,6.0,14.0,68,0.00,,,0.00,meteohub,2013-06-22 15:49:00,
2013-06-22 10:54:00,82.8,71.1,30.14,ESE,112,2.0,11.0,68,0.00,,,0.00,meteohub,2013-06-22 15:54:00,
2013-06-22 10:59:00,82.9,71.2,30.14,East,87,5.0,12.0,68,0.00,,,0.00,meteohub,2013-06-22 15:59:00,
2013-06-22 11:04:00,82.9,71.2,30.14,ESE,119,4.0,12.0,68,0.00,,,0.00,meteohub,2013-06-22 16:04:00,
2013-06-22 11:09:00,83.5,71.8,30.14,SE,136,5.0,12.0,68,0.00,,,0.00,meteohub,2013-06-22 16:09:00,
2013-06-22 11:14:00,83.5,71.8,30.14,East,91,6.0,10.0,68,0.00,,,0.00,meteohub,2013-06-22 16:14:00,
2013-06-22 11:19:00,83.7,72.0,30.14,ENE,66,4.0,11.0,68,0.00,,,0.00,meteohub,2013-06-22 16:19:00,
2013-06-22 11:24:00,83.8,71.8,30.14,ENE,77,7.0,11.0,67,0.00,,,0.00,meteohub,2013-06-22 16:24:00,
2013-06-22 11:30:00,84.2,72.9,30.14,SSE,150,4.0,11.0,69,0.00,,,0.00,meteohub,2013-06-22 16:30:00,
2013-06-22 11:35:00,85.1,71.6,30.14,ENE,75,4.0,14.0,64,0.00,,,0.00,meteohub,2013-06-22 16:35:00,
2013-06-22 11:40:00,84.0,71.4,30.14,ESE,112,8.0,14.0,66,0.00,,,0.00,meteohub,2013-06-22 16:40:00,
2013-06-22 11:45:00,82.9,71.2,30.14,ENE,74,2.0,14.0,68,0.00,,,0.00,meteohub,2013-06-22 16:45:00,
2013-06-22 11:50:00,83.5,71.8,30.13,NE,47,2.0,14.0,68,0.00,,,0.00,meteohub,2013-06-22 16:50:00,
2013-06-22 11:55:00,84.0,71.4,30.13,East,97,2.0,11.0,66,0.00,,,0.00,meteohub,2013-06-22 16:55:00,
2013-06-22 12:00:00,84.7,71.2,30.13,SE,131,6.0,11.0,64,0.00,,,0.00,meteohub,2013-06-22 17:00:00,
2013-06-22 12:05:00,85.3,72.7,30.13,East,88,9.0,10.0,66,0.00,,,0.00,meteohub,2013-06-22 17:05:00,
2013-06-22 12:10:00,85.3,72.7,30.13,East,101,3.0,10.0,66,0.00,,,0.00,meteohub,2013-06-22 17:10:00,
2013-06-22 12:16:00,85.5,72.0,30.13,NE,56,2.0,10.0,64,0.00,,,0.00,meteohub,2013-06-22 17:16:00,
2013-06-22 12:21:00,85.1,71.6,30.13,SE,144,4.0,10.0,64,0.00,,,0.00,meteohub,2013-06-22 17:21:00,
2013-06-22 12:26:00,85.3,72.1,30.13,SE,137,6.0,13.0,65,0.00,,,0.00,meteohub,2013-06-22 17:26:00,
2013-06-22 12:31:00,85.6,71.6,30.12,ENE,75,3.0,13.0,63,0.00,,,0.00,meteohub,2013-06-22 17:31:00,
2013-06-22 12:36:00,85.6,71.1,30.12,SSE,156,6.0,13.0,62,0.00,,,0.00,meteohub,2013-06-22 17:36:00,
2013-06-22 12:41:00,85.6,70.2,30.12,East,87,1.0,10.0,60,0.00,,,0.00,meteohub,2013-06-22 17:41:00,
2013-06-22 12:47:00,85.8,71.8,30.12,East,101,2.0,10.0,63,0.00,,,0.00,meteohub,2013-06-22 17:47:00,
2013-06-22 12:52:00,86.4,71.8,30.12,South,178,2.0,9.0,62,0.00,,,0.00,meteohub,2013-06-22 17:52:00,
2013-06-22 12:57:00,86.5,71.4,30.12,ENE,69,3.0,9.0,61,0.00,,,0.00,meteohub,2013-06-22 17:57:00,
2013-06-22 13:02:00,86.7,71.2,30.12,ENE,76,3.0,13.0,60,0.00,,,0.00,meteohub,2013-06-22 18:02:00,
2013-06-22 13:07:00,86.9,70.9,30.11,ESE,102,3.0,13.0,59,0.00,,,0.00,meteohub,2013-06-22 18:07:00,
2013-06-22 13:12:00,87.1,71.1,30.11,East,95,9.0,13.0,59,0.00,,,0.00,meteohub,2013-06-22 18:12:00,
2013-06-22 13:17:00,86.5,71.1,30.11,SE,138,4.0,11.0,60,0.00,,,0.00,meteohub,2013-06-22 18:17:00,
2013-06-22 13:22:00,86.7,71.2,30.11,SSE,154,2.0,9.0,60,0.00,,,0.00,meteohub,2013-06-22 18:22:00,
2013-06-22 13:27:00,87.1,71.1,30.10,ESE,111,2.0,9.0,59,0.00,,,0.00,meteohub,2013-06-22 18:27:00,
2013-06-22 13:32:00,86.7,70.7,30.11,SE,124,1.0,9.0,59,0.00,,,0.00,meteohub,2013-06-22 18:32:00,
2013-06-22 13:37:00,87.3,71.2,30.10,East,88,5.0,9.0,59,0.00,,,0.00,meteohub,2013-06-22 18:37:00,
2013-06-22 13:42:00,87.1,71.1,30.10,East,91,3.0,9.0,59,0.00,,,0.00,meteohub,2013-06-22 18:42:00,
2013-06-22 13:47:00,87.1,71.4,30.10,ESE,102,2.0,10.0,60,0.00,,,0.00,meteohub,2013-06-22 18:47:00,
2013-06-22 13:52:00,87.3,71.2,30.10,NNE,27,3.0,10.0,59,0.00,,,0.00,meteohub,2013-06-22 18:52:00,
2013-06-22 13:57:00,86.7,70.7,30.10,East,88,6.0,10.0,59,0.00,,,0.00,meteohub,2013-06-22 18:57:00,
2013-06-22 14:02:00,86.4,71.2,30.10,NE,46,2.0,9.0,61,0.00,,,0.00,meteohub,2013-06-22 19:02:00,
2013-06-22 14:07:00,86.5,71.4,30.10,WNW,284,1.0,9.0,61,0.00,,,0.00,meteohub,2013-06-22 19:07:00,
2013-06-22 14:12:00,87.3,70.7,30.09,ESE,112,1.0,7.0,58,0.00,,,0.00,meteohub,2013-06-22 19:12:00,
2013-06-22 14:18:00,88.0,72.3,30.09,ENE,68,2.0,5.0,60,0.00,,,0.00,meteohub,2013-06-22 19:18:00,
2013-06-22 14:23:00,88.0,71.8,30.09,ESE,108,2.0,3.0,59,0.00,,,0.00,meteohub,2013-06-22 19:23:00,
2013-06-22 14:28:00,87.3,71.6,30.09,ENE,70,1.0,6.0,60,0.00,,,0.00,meteohub,2013-06-22 19:28:00,
2013-06-22 14:33:00,86.4,71.2,30.09,East,83,0.0,6.0,61,0.00,,,0.00,meteohub,2013-06-22 19:33:00,
2013-06-22 14:38:00,85.8,71.2,30.09,East,95,3.0,6.0,62,0.00,,,0.00,meteohub,2013-06-22 19:38:00,
2013-06-22 14:43:00,85.5,72.3,30.09,East,84,0.0,6.0,65,0.00,,,0.00,meteohub,2013-06-22 19:43:00,
2013-06-22 14:48:00,85.1,71.6,30.09,East,91,2.0,6.0,64,0.00,,,0.00,meteohub,2013-06-22 19:48:00,
2013-06-22 14:53:00,84.9,71.4,30.08,ESE,104,1.0,7.0,64,0.00,,,0.00,meteohub,2013-06-22 19:53:00,
2013-06-22 14:58:00,85.6,71.6,30.08,East,80,3.0,7.0,63,0.00,,,0.00,meteohub,2013-06-22 19:58:00,
2013-06-22 15:03:00,86.7,71.2,30.08,ESE,123,4.0,8.0,60,0.00,,,0.00,meteohub,2013-06-22 20:03:00,
2013-06-22 15:09:00,87.3,71.6,30.07,East,87,1.0,8.0,60,0.00,,,0.00,meteohub,2013-06-22 20:09:00,
2013-06-22 15:14:00,88.0,71.8,30.07,SSE,150,1.0,8.0,59,0.00,,,0.00,meteohub,2013-06-22 20:14:00,
2013-06-22 15:19:00,88.3,71.6,30.07,NNE,14,2.0,7.0,58,0.00,,,0.00,meteohub,2013-06-22 20:19:00,
2013-06-22 15:24:00,88.3,71.6,30.07,ENE,60,3.0,6.0,58,0.00,,,0.00,meteohub,2013-06-22 20:24:00,
2013-06-22 15:29:00,88.3,72.1,30.06,East,81,3.0,6.0,59,0.00,,,0.00,meteohub,2013-06-22 20:29:00,
2013-06-22 15:34:00,88.3,70.7,30.07,ENE,78,0.0,7.0,56,0.00,,,0.00,meteohub,2013-06-22 20:34:00,
2013-06-22 15:39:00,88.5,71.8,30.06,ESE,114,2.0,7.0,58,0.00,,,0.00,meteohub,2013-06-22 20:39:00,
2013-06-22 15:44:00,88.9,72.1,30.06,East,96,0.0,7.0,58,0.00,,,0.00,meteohub,2013-06-22 20:44:00,
2013-06-22 15:50:00,89.2,70.9,30.06,ESE,104,2.0,8.0,55,0.00,,,0.00,meteohub,2013-06-22 20:50:00,
2013-06-22 15:55:00,88.9,72.1,30.06,ESE,104,2.0,8.0,58,0.00,,,0.00,meteohub,2013-06-22 20:55:00,
2013-06-22 16:00:00,88.5,71.8,30.06,ENE,72,2.0,8.0,58,0.00,,,0.00,meteohub,2013-06-22 21:00:00,
2013-06-22 16:05:00,88.3,71.6,30.06,ENE,65,0.0,7.0,58,0.00,,,0.00,meteohub,2013-06-22 21:05:00,
2013-06-22 16:10:00,88.9,73.2,30.06,East,87,1.0,5.0,60,0.00,,,0.00,meteohub,2013-06-22 21:10:00,
2013-06-22 16:15:00,88.9,72.1,30.06,ENE,73,2.0,5.0,58,0.00,,,0.00,meteohub,2013-06-22 21:15:00,
2013-06-22 16:20:00,88.5,71.8,30.05,ESE,107,2.0,8.0,58,0.00,,,0.00,meteohub,2013-06-22 21:20:00,
2013-06-22 16:25:00,88.3,71.6,30.05,ESE,109,2.0,8.0,58,0.00,,,0.00,meteohub,2013-06-22 21:25:00,
2013-06-22 16:30:00,88.5,72.9,30.04,ENE,70,2.0,8.0,60,0.00,,,0.00,meteohub,2013-06-22 21:30:00,
2013-06-22 16:36:00,89.1,72.3,30.05,East,80,5.0,7.0,58,0.00,,,0.00,meteohub,2013-06-22 21:36:00,
2013-06-22 16:41:00,88.9,71.6,30.04,ENE,71,4.0,9.0,57,0.00,,,0.00,meteohub,2013-06-22 21:41:00,
2013-06-22 16:46:00,88.9,70.7,30.04,ESE,118,4.0,10.0,55,0.00,,,0.00,meteohub,2013-06-22 21:46:00,
2013-06-22 16:51:00,88.2,71.1,30.04,East,93,1.0,10.0,57,0.00,,,0.00,meteohub,2013-06-22 21:51:00,
2013-06-22 16:56:00,88.0,70.3,30.04,East,85,3.0,8.0,56,0.00,,,0.00,meteohub,2013-06-22 21:56:00,
2013-06-22 17:01:00,88.0,70.3,30.04,East,94,3.0,8.0,56,0.00,,,0.00,meteohub,2013-06-22 22:01:00,
2013-06-22 17:06:00,88.0,71.4,30.04,ENE,75,4.0,8.0,58,0.00,,,0.00,meteohub,2013-06-22 22:06:00,
2013-06-22 17:11:00,88.0,70.3,30.04,East,84,3.0,7.0,56,0.00,,,0.00,meteohub,2013-06-22 22:11:00,
2013-06-22 17:16:00,88.0,71.8,30.04,ESE,107,3.0,8.0,59,0.00,,,0.00,meteohub,2013-06-22 22:16:00,
2013-06-22 17:22:00,87.4,71.4,30.04,ENE,62,2.0,8.0,59,0.00,,,0.00,meteohub,2013-06-22 22:22:00,
2013-06-22 17:27:00,86.7,71.6,30.04,East,94,7.0,8.0,61,0.00,,,0.00,meteohub,2013-06-22 22:27:00,
2013-06-22 17:32:00,86.0,71.1,30.04,SE,137,2.0,8.0,61,0.00,,,0.00,meteohub,2013-06-22 22:32:00,
2013-06-22 17:37:00,85.5,70.9,30.04,East,95,5.0,8.0,62,0.00,,,0.00,meteohub,2013-06-22 22:37:00,
2013-06-22 17:42:00,84.9,70.9,30.03,ENE,63,3.0,8.0,63,0.00,,,0.00,meteohub,2013-06-22 22:42:00,
2013-06-22 17:47:00,84.9,70.9,30.03,ENE,66,2.0,8.0,63,0.00,,,0.00,meteohub,2013-06-22 22:47:00,
2013-06-22 17:52:00,85.3,71.8,30.03,ENE,72,1.0,5.0,64,0.00,,,0.00,meteohub,2013-06-22 22:52:00,
2013-06-22 17:57:00,85.8,71.8,30.03,NNE,31,3.0,5.0,63,0.00,,,0.00,meteohub,2013-06-22 22:57:00,
2013-06-22 18:02:00,86.0,72.0,30.03,East,95,2.0,7.0,63,0.00,,,0.00,meteohub,2013-06-22 23:02:00,
2013-06-22 18:07:00,86.2,72.1,30.03,ENE,78,1.0,7.0,63,0.00,,,0.00,meteohub,2013-06-22 23:07:00,
2013-06-22 18:13:00,86.2,71.6,30.03,East,89,3.0,7.0,62,0.00,,,0.00,meteohub,2013-06-22 23:13:00,
2013-06-22 18:18:00,86.2,71.6,30.03,ESE,114,1.0,7.0,62,0.00,,,0.00,meteohub,2013-06-22 23:18:00,
2013-06-22 18:23:00,86.2,71.6,30.03,ESE,110,3.0,7.0,62,0.00,,,0.00,meteohub,2013-06-22 23:23:00,
2013-06-22 18:28:00,86.2,71.6,30.03,East,98,2.0,7.0,62,0.00,,,0.00,meteohub,2013-06-22 23:28:00,
2013-06-22 18:33:00,86.4,72.3,30.04,SE,143,1.0,5.0,63,0.00,,,0.00,meteohub,2013-06-22 23:33:00,
2013-06-22 18:38:00,86.2,73.0,30.04,East,86,3.0,6.0,65,0.00,,,0.00,meteohub,2013-06-22 23:38:00,
2013-06-22 18:43:00,85.3,73.0,30.04,SSW,212,1.0,6.0,67,0.00,,,0.00,meteohub,2013-06-22 23:43:00,
2013-06-22 18:48:00,84.4,72.7,30.04,East,100,1.0,5.0,68,0.00,,,0.00,meteohub,2013-06-22 23:48:00,
2013-06-22 18:53:00,83.5,72.7,30.04,SW,235,2.0,7.0,70,0.00,,,0.00,meteohub,2013-06-22 23:53:00,
2013-06-22 18:59:00,82.9,72.1,30.04,SE,133,0.0,7.0,70,0.00,,,0.00,meteohub,2013-06-22 23:59:00,
2013-06-22 19:04:00,82.4,72.0,30.04,SSW,203,2.0,5.0,71,0.00,,,0.00,meteohub,2013-06-23 00:04:00,
2013-06-22 19:09:00,82.0,72.1,30.04,ESE,108,1.0,4.0,72,0.00,,,0.00,meteohub,2013-06-23 00:09:00,
2013-06-22 19:14:00,81.7,71.8,30.04,South,186,0.0,5.0,72,0.00,,,0.00,meteohub,2013-06-23 00:14:00,
2013-06-22 19:19:00,81.5,72.0,30.04,ESE,118,2.0,5.0,73,0.00,,,0.00,meteohub,2013-06-23 00:19:00,
2013-06-22 19:24:00,81.1,71.6,30.04,SE,145,1.0,4.0,73,0.00,,,0.00,meteohub,2013-06-23 00:24:00,
2013-06-22 19:29:00,81.0,72.0,30.05,SSE,156,1.0,3.0,74,0.00,,,0.00,meteohub,2013-06-23 00:29:00,
2013-06-22 19:34:00,80.8,72.1,30.05,ESE,122,1.0,3.0,75,0.00,,,0.00,meteohub,2013-06-23 00:34:00,
2013-06-22 19:39:00,80.6,72.0,30.05,SE,125,3.0,3.0,75,0.00,,,0.00,meteohub,2013-06-23 00:39:00,
2013-06-22 19:44:00,80.4,72.1,30.05,East,94,6.0,10.0,76,0.00,,,0.00,meteohub,2013-06-23 00:44:00,
2013-06-22 19:50:00,80.2,72.0,30.05,East,83,6.0,10.0,76,0.00,,,0.00,meteohub,2013-06-23 00:50:00,
2013-06-22 19:55:00,79.5,71.2,30.05,ENE,76,9.0,11.0,76,0.00,,,0.00,meteohub,2013-06-23 00:55:00,
2013-06-22 20:00:00,79.3,71.1,30.05,ESE,114,5.0,14.0,76,0.00,,,0.00,meteohub,2013-06-23 01:00:00,
2013-06-22 20:05:00,79.2,71.2,30.05,ESE,108,1.0,14.0,77,0.00,,,0.00,meteohub,2013-06-23 01:05:00,
2013-06-22 20:10:00,79.0,71.6,30.05,SE,133,2.0,10.0,78,0.00,,,0.00,meteohub,2013-06-23 01:10:00,
2013-06-22 20:15:00,78.8,71.4,30.05,East,93,1.0,8.0,78,0.00,,,0.00,meteohub,2013-06-23 01:15:00,
2013-06-22 20:21:00,78.8,71.8,30.05,SE,127,0.0,7.0,79,0.00,,,0.00,meteohub,2013-06-23 01:21:00,
2013-06-22 20:26:00,78.6,71.6,30.05,East,98,2.0,5.0,79,0.00,,,0.00,meteohub,2013-06-23 01:26:00,
2013-06-22 20:31:00,78.4,71.8,30.05,SE,125,1.0,6.0,80,0.00,,,0.00,meteohub,2013-06-23 01:31:00,
2013-06-22 20:36:00,78.4,71.8,30.05,ESE,120,1.0,6.0,80,0.00,,,0.00,meteohub,2013-06-23 01:36:00,
2013-06-22 20:41:00,78.3,72.0,30.05,East,87,7.0,7.0,81,0.00,,,0.00,meteohub,2013-06-23 01:41:00,
2013-06-22 20:46:00,78.1,71.4,30.05,East,81,6.0,9.0,80,0.00,,,0.00,meteohub,2013-06-23 01:46:00,
2013-06-22 20:51:00,77.7,71.1,30.05,East,85,2.0,9.0,80,0.00,,,0.00,meteohub,2013-06-23 01:51:00,
2013-06-22 20:56:00,77.5,71.2,30.05,SE,132,0.0,9.0,81,0.00,,,0.00,meteohub,2013-06-23 01:56:00,
2013-06-22 21:01:00,77.4,71.1,30.05,SE,132,1.0,8.0,81,0.00,,,0.00,meteohub,2013-06-23 02:01:00,
2013-06-22 21:06:00,77.4,71.1,30.06,East,97,1.0,5.0,81,0.00,,,0.00,meteohub,2013-06-23 02:06:00,
2013-06-22 21:12:00,77.0,71.1,30.06,East,93,6.0,6.0,82,0.00,,,0.00,meteohub,2013-06-23 02:12:00,
2013-06-22 21:17:00,76.8,70.9,30.06,ENE,77,2.0,6.0,82,0.00,,,0.00,meteohub,2013-06-23 02:17:00,
2013-06-22 21:22:00,76.6,70.7,30.06,East,96,5.0,6.0,82,0.00,,,0.00,meteohub,2013-06-23 02:22:00,
2013-06-22 21:27:00,76.6,70.7,30.07,East,83,3.0,6.0,82,0.00,,,0.00,meteohub,2013-06-23 02:27:00,
2013-06-22 21:32:00,76.5,70.5,30.07,ESE,116,2.0,8.0,82,0.00,,,0.00,meteohub,2013-06-23 02:32:00,
2013-06-22 21:37:00,76.5,70.5,30.07,ESE,108,2.0,8.0,82,0.00,,,0.00,meteohub,2013-06-23 02:37:00,
2013-06-22 21:42:00,76.5,70.5,30.08,ESE,123,3.0,7.0,82,0.00,,,0.00,meteohub,2013-06-23 02:42:00,
2013-06-22 21:47:00,76.3,70.3,30.08,SSE,149,0.0,6.0,82,0.00,,,0.00,meteohub,2013-06-23 02:47:00,
2013-06-22 21:52:00,76.1,70.2,30.08,ESE,102,2.0,6.0,82,0.00,,,0.00,meteohub,2013-06-23 02:52:00,
2013-06-22 21:57:00,75.9,70.3,30.09,ENE,70,7.0,7.0,83,0.00,,,0.00,meteohub,2013-06-23 02:57:00,
2013-06-22 22:02:00,75.6,70.0,30.08,ENE,74,5.0,9.0,83,0.00,,,0.00,meteohub,2013-06-23 03:02:00,
2013-06-22 22:07:00,75.4,70.2,30.08,East,85,2.0,9.0,84,0.00,,,0.00,meteohub,2013-06-23 03:07:00,
2013-06-22 22:12:00,75.4,70.2,30.09,SE,125,1.0,9.0,84,0.00,,,0.00,meteohub,2013-06-23 03:12:00,
2013-06-22 22:17:00,75.4,70.2,30.09,ESE,102,1.0,8.0,84,0.00,,,0.00,meteohub,2013-06-23 03:17:00,
2013-06-22 22:22:00,75.2,70.0,30.09,East,93,2.0,6.0,84,0.00,,,0.00,meteohub,2013-06-23 03:22:00,
2013-06-22 22:27:00,75.0,69.8,30.09,East,89,6.0,7.0,84,0.00,,,0.00,meteohub,2013-06-23 03:27:00,
2013-06-22 22:32:00,74.8,70.0,30.09,ESE,106,1.0,7.0,85,0.00,,,0.00,meteohub,2013-06-23 03:32:00,
2013-06-22 22:37:00,74.7,70.2,30.09,East,85,5.0,7.0,86,0.00,,,0.00,meteohub,2013-06-23 03:37:00,
2013-06-22 22:42:00,74.7,70.2,30.09,SE,125,3.0,7.0,86,0.00,,,0.00,meteohub,2013-06-23 03:42:00,
2013-06-22 22:47:00,74.5,70.0,30.09,East,82,6.0,8.0,86,0.00,,,0.00,meteohub,2013-06-23 03:47:00,
2013-06-22 22:52:00,74.5,70.0,30.09,East,98,3.0,8.0,86,0.00,,,0.00,meteohub,2013-06-23 03:52:00,
2013-06-22 22:57:00,74.5,70.0,30.09,ESE,116,1.0,8.0,86,0.00,,,0.00,meteohub,2013-06-23 03:57:00,
2013-06-22 23:01:00,74.5,70.0,30.09,East,91,2.0,6.0,86,0.00,,,0.00,meteohub,2013-06-23 04:01:00,
2013-06-22 23:02:00,74.5,70.0,30.09,East,87,3.0,6.0,86,0.00,,,0.00,meteohub,2013-06-23 04:02:00,
2013-06-22 23:06:00,74.5,70.0,30.09,East,97,2.0,6.0,86,0.00,,,0.00,meteohub,2013-06-23 04:06:00,
2013-06-22 23:11:00,74.3,70.2,30.09,East,98,0.0,5.0,87,0.00,,,0.00,meteohub,2013-06-23 04:11:00,
2013-06-22 23:16:00,74.1,70.0,30.09,East,98,0.0,5.0,87,0.00,,,0.00,meteohub,2013-06-23 04:16:00,
2013-06-22 23:21:00,74.1,70.0,30.09,East,97,0.0,3.0,87,0.00,,,0.00,meteohub,2013-06-23 04:21:00,
2013-06-22 23:26:00,74.1,70.0,30.09,East,97,1.0,3.0,87,0.00,,,0.00,meteohub,2013-06-23 04:26:00,
2013-06-22 23:31:00,73.9,69.8,30.09,East,81,1.0,5.0,87,0.00,,,0.00,meteohub,2013-06-23 04:31:00,
2013-06-22 23:36:00,73.9,70.2,30.09,East,89,0.0,5.0,88,0.00,,,0.00,meteohub,2013-06-23 04:36:00,
2013-06-22 23:42:00,73.8,70.0,30.09,ESE,120,0.0,5.0,88,0.00,,,0.00,meteohub,2013-06-23 04:42:00,
2013-06-22 23:47:00,73.8,70.0,30.09,ESE,120,0.0,5.0,88,0.00,,,0.00,meteohub,2013-06-23 04:47:00,
2013-06-22 23:52:00,73.6,69.8,30.09,ESE,120,0.0,3.0,88,0.00,,,0.00,meteohub,2013-06-23 04:52:00,
2013-06-22 23:57:00,73.6,69.8,30.09,ESE,120,0.0,1.0,88,0.00,,,0.00,meteohub,2013-06-23 04:57:00,